sat.trackr.live / text

‹ back to catalog

STARLINK-36662

NORAD 67832 · 2026-033M

PAYLOAD ACTIVE UNKNOWN

§ Identity

Operator
Country
US
Launch date
2026-02-16
Launch site
AFETR
Launch vehicle
Mass (kg)
RCS (m²)

Purposes: comms

External: N2YO · Heavens-Above · Gunter

§ Orbital elements

Epoch: 2026-05-24T14:29:22.041312Z

Period
94.27 min
Inclination
43.0016°
Eccentricity
0.0001464
Mean motion
15.27586743 rev/d
Perigee alt
482.0 km
Apogee alt
484.0 km
Semi-major
6,861.2 km
B*
4.9979e-4
RAAN
191.3054°
Arg perigee
271.6895°
Mean anomaly
88.3789°
Rev number
1,636

§ Raw data

STARLINK-366621 67832U 26033M   26144.60372733  .00013519  00000+0  49979-3 0  99972 67832  43.0016 191.3054 0001464 271.6895  88.3789 15.27586743 16365

JSON: /api/v1/satellites/67832 · /tle

For live sub-satellite position, see the globe view (requires WebGL).

§ Visibility from observer

Set your observer location to see the next 7 days of passes ≥ 10°. The values pass through the URL so the page stays shareable.

No JS? Fill the form by hand. The geolocation button needs JavaScript.